HST 1 20580U 90037B 25100.44000422 .00010217 00000-0 39709-3 0 9990 2 20580 28.4676 143.8446 0002283 74.8670 285.2177 15.24349915722339 ISS (ZARYA) 1 25544U 98067A 25101.02967319 .00017382 00000-0 31794-3 0 9994 2 25544 51.6379 279.6534 0005348 32.4221 113.6148 15.49440859504746 CXO 1 25867U 99040B 25103.32514594 .00000835 00000-0 00000-0 0 9990 2 25867 48.0761 132.8939 8519576 308.3942 0.0948 0.37812561 15696